 ,�O�C���x[��],����1,�O�C���x[��],����2,���ԉ��x[��],����3,���Ԏ��x[��],����4,�m��2(��󒲎�)���x[��],����5,����[��],����6
2003/4/1 0:00,9.4,0 ,51,0 ,20.1,0 ,59,0 ,17.9,0 ,12.9,0
2003/4/1 0:15,9.2,0 ,51,0 ,19.8,0 ,60,0 ,17.9,0 ,13,0
2003/4/1 0:30,9.1,0 ,50,0 ,20,0 ,58,0 ,18,0 ,13.1,0
2003/4/1 0:45,8.9,0 ,49,0 ,19.7,0 ,59,0 ,18,0 ,13.3,0
2003/4/1 1:00,8.9,0 ,48,0 ,19.8,0 ,58,0 ,18.1,0 ,13.4,0
2003/4/1 1:15,8.8,0 ,47,0 ,19.6,0 ,59,0 ,18.1,0 ,13.5,0
2003/4/1 1:30,8.7,0 ,46,0 ,19.7,0 ,58,0 ,18.2,0 ,13.6,0
2003/4/1 1:45,8.7,0 ,45,0 ,19.4,0 ,58,0 ,18.2,0 ,13.7,0
2003/4/1 2:00,8.6,0 ,44,0 ,19.6,0 ,57,0 ,18.3,0 ,13.8,0
2003/4/1 2:15,8.5,0 ,42,0 ,19.3,0 ,58,0 ,18.3,0 ,13.9,0
2003/4/1 2:30,8.5,0 ,40,0 ,19.5,0 ,57,0 ,18.3,0 ,14,0
2003/4/1 2:45,8.4,0 ,40,0 ,19.3,0 ,58,0 ,18.3,0 ,14.1,0
2003/4/1 3:00,8.3,0 ,40,0 ,19.4,0 ,57,0 ,18.4,0 ,14.2,0
2003/4/1 3:15,8.2,0 ,41,0 ,19.2,0 ,57,0 ,18.4,0 ,14.3,0
2003/4/1 3:30,8.2,0 ,41,0 ,19.3,0 ,57,0 ,18.4,0 ,14.4,0
2003/4/1 3:45,8,0 ,42,0 ,19.1,0 ,57,0 ,18.4,0 ,14.5,0
2003/4/1 4:00,7.9,0 ,43,0 ,19.2,0 ,56,0 ,18.4,0 ,14.6,0
2003/4/1 4:15,7.7,0 ,43,0 ,19.1,0 ,56,0 ,18.4,0 ,14.6,0
2003/4/1 4:30,7.7,0 ,43,0 ,19.2,0 ,55,0 ,18.5,0 ,14.7,0
2003/4/1 4:45,7.7,0 ,44,0 ,19,0 ,55,0 ,18.4,0 ,14.8,0
2003/4/1 5:00,7.6,0 ,45,0 ,19.1,0 ,55,0 ,18.4,0 ,14.8,0
2003/4/1 5:15,7.5,0 ,45,0 ,18.9,0 ,55,0 ,18.3,0 ,14.9,0
2003/4/1 5:30,7.5,0 ,45,0 ,19,0 ,55,0 ,18.3,0 ,15,0
2003/4/1 5:45,7.4,0 ,46,0 ,18.9,0 ,55,0 ,18.2,0 ,15.1,0
2003/4/1 6:00,7.7,0 ,46,0 ,19.1,0 ,55,0 ,18.1,0 ,15.1,0
2003/4/1 6:15,7.6,0 ,44,0 ,19.4,0 ,54,0 ,18.3,0 ,12.2,0
2003/4/1 6:30,8,0 ,41,0 ,19.5,0 ,54,0 ,18.6,0 ,12.3,0
2003/4/1 6:45,8.3,0 ,41,0 ,19.3,0 ,53,0 ,18.6,0 ,12.5,0
2003/4/1 7:00,8.7,0 ,40,0 ,19.4,0 ,53,0 ,18.5,0 ,12.6,0
2003/4/1 7:15,9,0 ,41,0 ,19.7,0 ,52,0 ,18.5,0 ,11.9,0
2003/4/1 7:30,8.8,0 ,42,0 ,21.3,0 ,49,0 ,18.6,0 ,12,0
2003/4/1 7:45,8.9,0 ,41,0 ,22.7,0 ,47,0 ,18.6,0 ,12.2,0
2003/4/1 8:00,9.4,0 ,39,0 ,22.3,0 ,45,0 ,18.7,0 ,12.3,0
2003/4/1 8:15,9.9,0 ,38,0 ,22.2,0 ,41,0 ,19.1,0 ,12.4,0
2003/4/1 8:30,11.3,0 ,37,0 ,22.6,0 ,37,0 ,19,0 ,12.6,0
2003/4/1 8:45,11.6,0 ,35,0 ,23.3,0 ,37,0 ,18.5,0 ,12.7,0
2003/4/1 9:00,12.2,0 ,33,0 ,23.4,0 ,40,0 ,18.2,0 ,11.6,0
2003/4/1 9:15,12.6,0 ,31,0 ,22.3,0 ,33,0 ,18.4,0 ,10.8,0
2003/4/1 9:30,13,0 ,28,0 ,22.2,0 ,32,0 ,18.5,0 ,10.9,0
2003/4/1 9:45,13.8,0 ,26,0 ,20.7,0 ,34,0 ,18.7,0 ,11,0
2003/4/1 10:00,14.2,0 ,24,0 ,20.4,0 ,37,0 ,18.5,0 ,11.2,0
2003/4/1 10:15,14.7,0 ,23,0 ,20.1,0 ,36,0 ,18.4,0 ,11.1,0
2003/4/1 10:30,15.6,0 ,22,0 ,20.3,0 ,37,0 ,18.3,0 ,11.2,0
2003/4/1 10:45,16,0 ,22,0 ,19.9,0 ,38,0 ,18.2,0 ,11.4,0
2003/4/1 11:00,15.5,0 ,22,0 ,20,0 ,38,0 ,18.1,0 ,11.5,0
2003/4/1 11:15,15.2,0 ,25,0 ,19.8,0 ,38,0 ,18.1,0 ,11.6,0
2003/4/1 11:30,14.5,0 ,27,0 ,19.9,0 ,38,0 ,18,0 ,11.8,0
2003/4/1 11:45,14.5,0 ,28,0 ,19.6,0 ,38,0 ,17.9,0 ,11.9,0
2003/4/1 12:00,14.4,0 ,28,0 ,19.7,0 ,38,0 ,17.9,0 ,12.1,0
2003/4/1 12:15,14,0 ,27,0 ,19.5,0 ,38,0 ,17.8,0 ,12.2,0
2003/4/1 12:30,14,0 ,26,0 ,19.6,0 ,38,0 ,17.7,0 ,12.3,0
2003/4/1 12:45,14,0 ,26,0 ,19.4,0 ,38,0 ,17.7,0 ,12.5,0
2003/4/1 13:00,14.1,0 ,26,0 ,19.5,0 ,38,0 ,17.7,0 ,12.6,0
2003/4/1 13:15,14.2,0 ,26,0 ,19.3,0 ,38,0 ,17.6,0 ,12.8,0
2003/4/1 13:30,14.2,0 ,25,0 ,19.4,0 ,38,0 ,17.5,0 ,12.9,0
2003/4/1 13:45,14.4,0 ,26,0 ,19.2,0 ,38,0 ,17.5,0 ,13,0
2003/4/1 14:00,14.3,0 ,26,0 ,19.3,0 ,38,0 ,17.5,0 ,13.1,0
2003/4/1 14:15,14.3,0 ,26,0 ,19.2,0 ,38,0 ,17.4,0 ,13.3,0
2003/4/1 14:30,14.4,0 ,25,0 ,19.2,0 ,38,0 ,17.4,0 ,13.4,0
2003/4/1 14:45,14.4,0 ,25,0 ,19.1,0 ,38,0 ,17.4,0 ,13.5,0
2003/4/1 15:00,14.4,0 ,24,0 ,19.2,0 ,38,0 ,17.3,0 ,13.6,0
2003/4/1 15:15,14.4,0 ,24,0 ,19.1,0 ,37,0 ,17.3,0 ,13.7,0
2003/4/1 15:30,14.4,0 ,24,0 ,19.1,0 ,38,0 ,17.3,0 ,13.8,0
2003/4/1 15:45,14.5,0 ,24,0 ,19,0 ,37,0 ,17.3,0 ,13.9,0
2003/4/1 16:00,14.5,0 ,23,0 ,19,0 ,38,0 ,17.2,0 ,14,0
2003/4/1 16:15,14.4,0 ,23,0 ,18.9,0 ,37,0 ,17.2,0 ,14.1,0
2003/4/1 16:30,14.3,0 ,23,0 ,19,0 ,37,0 ,17.2,0 ,14.2,0
2003/4/1 16:45,14.2,0 ,31,0 ,18.8,0 ,37,0 ,17.1,0 ,14.3,0
2003/4/1 17:00,14,0 ,39,0 ,18.9,0 ,37,0 ,17.1,0 ,14.4,0
2003/4/1 17:15,13.6,0 ,42,0 ,18.8,0 ,37,0 ,17.1,0 ,14.5,0
2003/4/1 17:30,12.8,0 ,45,0 ,18.9,0 ,38,0 ,17,0 ,14.6,0
2003/4/1 17:45,12.2,0 ,47,0 ,18.7,0 ,38,0 ,17,0 ,14.6,0
2003/4/1 18:00,11.8,0 ,48,0 ,18.8,0 ,40,0 ,17,0 ,14.7,0
2003/4/1 18:15,11,0 ,49,0 ,20.1,0 ,39,0 ,16.9,0 ,14.8,0
2003/4/1 18:30,10.6,0 ,49,0 ,19.2,0 ,39,0 ,17,0 ,14.8,0
2003/4/1 18:45,10.2,0 ,53,0 ,18.9,0 ,39,0 ,17.1,0 ,14.9,0
2003/4/1 19:00,9.7,0 ,57,0 ,18.9,0 ,39,0 ,17.1,0 ,15,0
2003/4/1 19:15,9.3,0 ,59,0 ,18.7,0 ,39,0 ,17,0 ,15,0
2003/4/1 19:30,9,0 ,60,0 ,18.7,0 ,39,0 ,17,0 ,15.1,0
2003/4/1 19:45,8.7,0 ,63,0 ,18.6,0 ,39,0 ,16.9,0 ,15.1,0
2003/4/1 20:00,8.4,0 ,65,0 ,18.6,0 ,39,0 ,16.9,0 ,15.2,0
2003/4/1 20:15,8,0 ,68,0 ,18.5,0 ,39,0 ,16.8,0 ,15.2,0
2003/4/1 20:30,7.6,0 ,70,0 ,18.5,0 ,39,0 ,16.8,0 ,15.3,0
2003/4/1 20:45,7.3,0 ,71,0 ,18.4,0 ,39,0 ,16.8,0 ,12.1,0
2003/4/1 21:00,7.2,0 ,71,0 ,18.5,0 ,40,0 ,16.8,0 ,12.2,0
2003/4/1 21:15,7,0 ,75,0 ,18.4,0 ,41,0 ,16.8,0 ,12.3,0
2003/4/1 21:30,6.4,0 ,79,0 ,19,0 ,43,0 ,16.9,0 ,11.6,0
2003/4/1 21:45,5.9,0 ,79,0 ,20.2,0 ,44,0 ,17,0 ,11.8,0
2003/4/1 22:00,5.6,0 ,78,0 ,20.9,0 ,43,0 ,16.9,0 ,11.9,0
2003/4/1 22:15,5.3,0 ,76,0 ,21.4,0 ,41,0 ,17,0 ,12.1,0
2003/4/1 22:30,5.4,0 ,74,0 ,21.8,0 ,42,0 ,16.9,0 ,12.2,0
2003/4/1 22:45,5.5,0 ,73,0 ,21.3,0 ,42,0 ,17,0 ,12.4,0
2003/4/1 23:00,5.7,0 ,71,0 ,20,0 ,47,0 ,17.5,0 ,11.5,0
2003/4/1 23:15,6,0 ,71,0 ,19.4,0 ,47,0 ,17.7,0 ,11.5,0
2003/4/1 23:30,6.2,0 ,70,0 ,19.6,0 ,47,0 ,17.7,0 ,11.7,0
2003/4/1 23:45,6.2,0 ,71,0 ,19.3,0 ,46,0 ,17.6,0 ,11.8,0
2003/4/2 0:00,6.2,0 ,71,0 ,19.4,0 ,46,0 ,17.6,0 ,11.9,0
2003/4/2 0:15,6.2,0 ,71,0 ,19.2,0 ,45,0 ,17.6,0 ,12,0
2003/4/2 0:30,6.2,0 ,70,0 ,19.2,0 ,45,0 ,17.7,0 ,12.2,0
2003/4/2 0:45,6.3,0 ,68,0 ,19,0 ,45,0 ,17.7,0 ,12.3,0
2003/4/2 1:00,6.4,0 ,65,0 ,19,0 ,45,0 ,17.7,0 ,12.4,0
2003/4/2 1:15,6.5,0 ,64,0 ,18.9,0 ,45,0 ,17.7,0 ,12.5,0
2003/4/2 1:30,6.5,0 ,63,0 ,18.9,0 ,44,0 ,17.7,0 ,12.7,0
2003/4/2 1:45,6.5,0 ,63,0 ,18.7,0 ,44,0 ,17.7,0 ,12.8,0
2003/4/2 2:00,6.5,0 ,63,0 ,18.8,0 ,43,0 ,17.7,0 ,12.9,0
2003/4/2 2:15,6.5,0 ,65,0 ,18.7,0 ,43,0 ,17.7,0 ,13,0
2003/4/2 2:30,6.4,0 ,66,0 ,18.8,0 ,43,0 ,17.7,0 ,13.1,0
2003/4/2 2:45,6.4,0 ,66,0 ,18.6,0 ,43,0 ,17.7,0 ,13.2,0
2003/4/2 3:00,6.3,0 ,66,0 ,18.7,0 ,43,0 ,17.7,0 ,13.3,0
2003/4/2 3:15,6.2,0 ,66,0 ,18.5,0 ,42,0 ,17.7,0 ,13.4,0
2003/4/2 3:30,6.1,0 ,65,0 ,18.6,0 ,42,0 ,17.7,0 ,13.5,0
2003/4/2 3:45,6.1,0 ,66,0 ,18.5,0 ,42,0 ,17.7,0 ,13.6,0
2003/4/2 4:00,6,0 ,66,0 ,18.6,0 ,42,0 ,17.6,0 ,13.7,0
2003/4/2 4:15,5.9,0 ,67,0 ,18.4,0 ,42,0 ,17.6,0 ,13.8,0
2003/4/2 4:30,5.8,0 ,67,0 ,18.5,0 ,42,0 ,17.6,0 ,13.9,0
2003/4/2 4:45,5.6,0 ,68,0 ,18.4,0 ,41,0 ,17.6,0 ,13.9,0
2003/4/2 5:00,5.4,0 ,69,0 ,18.4,0 ,42,0 ,17.6,0 ,14,0
2003/4/2 5:15,5.2,0 ,70,0 ,18.3,0 ,41,0 ,17.6,0 ,14.1,0
2003/4/2 5:30,5,0 ,71,0 ,18.4,0 ,42,0 ,17.6,0 ,14.2,0
2003/4/2 5:45,4.8,0 ,75,0 ,18.2,0 ,41,0 ,17.6,0 ,13,0
2003/4/2 6:00,4.1,0 ,79,0 ,19.3,0 ,56,0 ,17.7,0 ,12.7,0
2003/4/2 6:15,3.7,0 ,80,0 ,19.4,0 ,63,0 ,17.7,0 ,11.6,0
2003/4/2 6:30,3.7,0 ,81,0 ,20.5,0 ,61,0 ,18.2,0 ,12,0
2003/4/2 6:45,3.7,0 ,79,0 ,21.1,0 ,61,0 ,18.1,0 ,12.2,0
2003/4/2 7:00,3.8,0 ,77,0 ,20.2,0 ,59,0 ,18.4,0 ,12.4,0
2003/4/2 7:15,3.9,0 ,75,0 ,21,0 ,60,0 ,18.6,0 ,12.6,0
2003/4/2 7:30,4.3,0 ,72,0 ,20.6,0 ,59,0 ,18.4,0 ,10.9,0
2003/4/2 7:45,5.2,0 ,68,0 ,19.5,0 ,54,0 ,18.6,0 ,11,0
2003/4/2 8:00,5.7,0 ,63,0 ,19.3,0 ,55,0 ,18.5,0 ,11.2,0
2003/4/2 8:15,6.3,0 ,61,0 ,19,0 ,55,0 ,18.3,0 ,11.4,0
2003/4/2 8:30,6.8,0 ,58,0 ,19.3,0 ,54,0 ,18.2,0 ,11.6,0
2003/4/2 8:45,7.3,0 ,57,0 ,18.9,0 ,55,0 ,18.1,0 ,11.8,0
2003/4/2 9:00,7.9,0 ,55,0 ,19.2,0 ,54,0 ,18,0 ,12,0
2003/4/2 9:15,8.3,0 ,54,0 ,18.9,0 ,54,0 ,17.9,0 ,12.2,0
2003/4/2 9:30,8.8,0 ,52,0 ,19.1,0 ,53,0 ,17.8,0 ,12.4,0
2003/4/2 9:45,9.3,0 ,50,0 ,18.8,0 ,53,0 ,17.7,0 ,12.5,0
2003/4/2 10:00,10.1,0 ,48,0 ,19,0 ,52,0 ,17.7,0 ,12.7,0
2003/4/2 10:15,10.4,0 ,49,0 ,18.7,0 ,53,0 ,17.6,0 ,12.8,0
2003/4/2 10:30,10.9,0 ,49,0 ,18.8,0 ,52,0 ,17.6,0 ,12.9,0
2003/4/2 10:45,11.2,0 ,50,0 ,18.6,0 ,51,0 ,17.5,0 ,13.1,0
2003/4/2 11:00,11.2,0 ,50,0 ,18.8,0 ,51,0 ,17.5,0 ,13.2,0
2003/4/2 11:15,11.4,0 ,51,0 ,18.6,0 ,51,0 ,17.4,0 ,13.3,0
2003/4/2 11:30,11.6,0 ,51,0 ,18.7,0 ,50,0 ,17.4,0 ,13.4,0
2003/4/2 11:45,11.7,0 ,52,0 ,18.5,0 ,50,0 ,17.3,0 ,13.6,0
2003/4/2 12:00,11.9,0 ,52,0 ,18.7,0 ,50,0 ,17.3,0 ,13.7,0
2003/4/2 12:15,12,0 ,52,0 ,18.5,0 ,50,0 ,17.3,0 ,13.8,0
2003/4/2 12:30,12.2,0 ,52,0 ,18.6,0 ,50,0 ,17.2,0 ,13.8,0
2003/4/2 12:45,12.3,0 ,53,0 ,18.4,0 ,49,0 ,17.2,0 ,13.9,0
2003/4/2 13:00,12.4,0 ,53,0 ,18.6,0 ,49,0 ,17.2,0 ,14,0
2003/4/2 13:15,12.4,0 ,55,0 ,18.4,0 ,49,0 ,17.1,0 ,14,0
2003/4/2 13:30,12.3,0 ,57,0 ,18.5,0 ,49,0 ,17.1,0 ,14.1,0
2003/4/2 13:45,12.3,0 ,59,0 ,18.3,0 ,49,0 ,17.1,0 ,14.2,0
2003/4/2 14:00,12.2,0 ,61,0 ,18.5,0 ,49,0 ,17,0 ,14.2,0
2003/4/2 14:15,12,0 ,66,0 ,18.3,0 ,49,0 ,17,0 ,14.3,0
2003/4/2 14:30,11.8,0 ,70,0 ,18.4,0 ,49,0 ,17,0 ,14.3,0
2003/4/2 14:45,11.5,0 ,74,0 ,18.3,0 ,49,0 ,17,0 ,14.5,0
2003/4/2 15:00,11.2,0 ,77,0 ,18.4,0 ,49,0 ,16.9,0 ,14.6,0
2003/4/2 15:15,11,0 ,79,0 ,18.2,0 ,49,0 ,16.9,0 ,14.7,0
2003/4/2 15:30,10.9,0 ,81,0 ,18.3,0 ,49,0 ,16.9,0 ,14.7,0
2003/4/2 15:45,10.8,0 ,80,0 ,18.2,0 ,49,0 ,16.8,0 ,14.8,0
2003/4/2 16:00,10.8,0 ,79,0 ,18.3,0 ,49,0 ,16.8,0 ,14.8,0
2003/4/2 16:15,10.9,0 ,81,0 ,18.1,0 ,49,0 ,16.8,0 ,14.9,0
2003/4/2 16:30,10.8,0 ,82,0 ,18.3,0 ,49,0 ,16.8,0 ,14.9,0
2003/4/2 16:45,10.7,0 ,82,0 ,18.1,0 ,49,0 ,16.8,0 ,15,0
2003/4/2 17:00,10.7,0 ,82,0 ,18.2,0 ,49,0 ,16.7,0 ,15,0
2003/4/2 17:15,10.7,0 ,82,0 ,18.1,0 ,49,0 ,16.7,0 ,15.1,0
2003/4/2 17:30,10.6,0 ,81,0 ,18.2,0 ,49,0 ,16.7,0 ,15.1,0
2003/4/2 17:45,10.6,0 ,82,0 ,18,0 ,49,0 ,16.7,0 ,15.1,0
2003/4/2 18:00,10.5,0 ,82,0 ,18.1,0 ,49,0 ,16.7,0 ,15.2,0
2003/4/2 18:15,10.5,0 ,80,0 ,18,0 ,49,0 ,16.6,0 ,15.2,0
2003/4/2 18:30,10.5,0 ,77,0 ,18.1,0 ,49,0 ,16.6,0 ,15.3,0
2003/4/2 18:45,10.5,0 ,72,0 ,17.9,0 ,49,0 ,16.6,0 ,15.3,0
2003/4/2 19:00,10.3,0 ,66,0 ,18,0 ,49,0 ,16.5,0 ,15.3,0
2003/4/2 19:15,10.3,0 ,70,0 ,17.9,0 ,48,0 ,16.5,0 ,15.4,0
2003/4/2 19:30,9.6,0 ,73,0 ,19.8,0 ,49,0 ,16.9,0 ,15.4,0
2003/4/2 19:45,8.9,0 ,73,0 ,20.6,0 ,48,0 ,17,0 ,15.4,0
2003/4/2 20:00,8.9,0 ,72,0 ,22.3,0 ,52,0 ,16.9,0 ,15.5,0
2003/4/2 20:15,8.7,0 ,72,0 ,21.9,0 ,50,0 ,16.7,0 ,15.5,0
2003/4/2 20:30,8.4,0 ,72,0 ,22.3,0 ,50,0 ,16.6,0 ,15.6,0
2003/4/2 20:45,8.3,0 ,71,0 ,23.1,0 ,49,0 ,16.6,0 ,15.7,0
2003/4/2 21:00,8.5,0 ,69,0 ,22.6,0 ,51,0 ,16.8,0 ,15.7,0
2003/4/2 21:15,8.6,0 ,69,0 ,22.2,0 ,49,0 ,17.4,0 ,15.8,0
2003/4/2 21:30,8.4,0 ,68,0 ,22.8,0 ,50,0 ,17.7,0 ,13,0
2003/4/2 21:45,8.7,0 ,74,0 ,22.8,0 ,53,0 ,17.5,0 ,13.2,0
2003/4/2 22:00,8.5,0 ,79,0 ,23.1,0 ,54,0 ,17.4,0 ,13.3,0
2003/4/2 22:15,8.2,0 ,80,0 ,23,0 ,57,0 ,17.3,0 ,13.4,0
2003/4/2 22:30,8,0 ,81,0 ,22.7,0 ,57,0 ,17.2,0 ,13.6,0
2003/4/2 22:45,8.5,0 ,81,0 ,20.6,0 ,59,0 ,18,0 ,12,0
2003/4/2 23:00,8.7,0 ,80,0 ,20.3,0 ,58,0 ,18.3,0 ,10.7,0
2003/4/2 23:15,8.7,0 ,81,0 ,19.8,0 ,57,0 ,18.4,0 ,11.2,0
2003/4/2 23:30,8.6,0 ,82,0 ,20.1,0 ,55,0 ,18.4,0 ,11.5,0
2003/4/2 23:45,8.7,0 ,82,0 ,19.5,0 ,55,0 ,18.4,0 ,11.7,0
2003/4/3 0:00,8.8,0 ,81,0 ,19.9,0 ,53,0 ,18.3,0 ,11.9,0
2003/4/3 0:15,8.8,0 ,81,0 ,19.3,0 ,54,0 ,18.2,0 ,12.1,0
2003/4/3 0:30,8.7,0 ,81,0 ,19.6,0 ,53,0 ,18.2,0 ,12.3,0
2003/4/3 0:45,8.6,0 ,84,0 ,19.2,0 ,54,0 ,18.2,0 ,12.5,0
2003/4/3 1:00,8.4,0 ,86,0 ,19.4,0 ,53,0 ,18.2,0 ,12.6,0
2003/4/3 1:15,8.2,0 ,87,0 ,19.2,0 ,53,0 ,18.2,0 ,12.8,0
2003/4/3 1:30,8,0 ,88,0 ,19.3,0 ,52,0 ,18.2,0 ,12.9,0
2003/4/3 1:45,7.9,0 ,89,0 ,19.1,0 ,52,0 ,18.2,0 ,13,0
2003/4/3 2:00,7.7,0 ,89,0 ,19.2,0 ,51,0 ,18.2,0 ,13.2,0
2003/4/3 2:15,7.6,0 ,90,0 ,19,0 ,52,0 ,18.2,0 ,13.3,0
2003/4/3 2:30,7.4,0 ,91,0 ,19.1,0 ,51,0 ,18.2,0 ,13.4,0
2003/4/3 2:45,7.3,0 ,91,0 ,18.9,0 ,51,0 ,18.2,0 ,13.5,0
2003/4/3 3:00,7.2,0 ,90,0 ,19,0 ,50,0 ,18.2,0 ,13.6,0
2003/4/3 3:15,7.2,0 ,90,0 ,18.7,0 ,51,0 ,18.1,0 ,13.8,0
2003/4/3 3:30,7,0 ,89,0 ,18.9,0 ,50,0 ,18.1,0 ,13.9,0
2003/4/3 3:45,6.9,0 ,89,0 ,18.7,0 ,50,0 ,18.1,0 ,14,0
2003/4/3 4:00,6.8,0 ,88,0 ,18.8,0 ,50,0 ,18.1,0 ,14.1,0
2003/4/3 4:15,6.5,0 ,88,0 ,18.6,0 ,50,0 ,18,0 ,14.1,0
2003/4/3 4:30,6.3,0 ,87,0 ,18.7,0 ,50,0 ,18,0 ,14.2,0
2003/4/3 4:45,6.1,0 ,86,0 ,18.6,0 ,49,0 ,18,0 ,14.3,0
2003/4/3 5:00,5.9,0 ,84,0 ,18.7,0 ,49,0 ,18,0 ,14.4,0
2003/4/3 5:15,6,0 ,84,0 ,18.5,0 ,49,0 ,17.9,0 ,14.5,0
2003/4/3 5:30,5.8,0 ,83,0 ,18.6,0 ,49,0 ,17.9,0 ,14.5,0
2003/4/3 5:45,4.9,0 ,85,0 ,20.1,0 ,48,0 ,18.1,0 ,13.1,0
2003/4/3 6:00,4.5,0 ,86,0 ,21,0 ,47,0 ,18.6,0 ,12.6,0
2003/4/3 6:15,4.7,0 ,81,0 ,21.7,0 ,45,0 ,19.1,0 ,12.7,0
2003/4/3 6:30,5.2,0 ,76,0 ,22.8,0 ,43,0 ,19.1,0 ,12.9,0
2003/4/3 6:45,5.6,0 ,75,0 ,24.1,0 ,41,0 ,19,0 ,13.1,0
2003/4/3 7:00,6.3,0 ,73,0 ,23,0 ,46,0 ,18.7,0 ,13.2,0
2003/4/3 7:15,6.4,0 ,69,0 ,22.8,0 ,47,0 ,19.1,0 ,13.4,0
2003/4/3 7:30,7.1,0 ,64,0 ,21.3,0 ,50,0 ,19.4,0 ,13.5,0
2003/4/3 7:45,8.3,0 ,60,0 ,20.9,0 ,52,0 ,19.4,0 ,13.7,0
2003/4/3 8:00,9.2,0 ,55,0 ,20.8,0 ,52,0 ,19.3,0 ,13.8,0
2003/4/3 8:15,9.8,0 ,51,0 ,20.6,0 ,51,0 ,19.3,0 ,13.9,0
2003/4/3 8:30,11,0 ,47,0 ,20.6,0 ,51,0 ,19.2,0 ,14,0
2003/4/3 8:45,11.3,0 ,42,0 ,20.3,0 ,50,0 ,19.1,0 ,14.1,0
2003/4/3 9:00,11,0 ,36,0 ,20.3,0 ,49,0 ,19,0 ,14.2,0
2003/4/3 9:15,10.9,0 ,33,0 ,20,0 ,49,0 ,18.9,0 ,14.3,0
2003/4/3 9:30,11.4,0 ,29,0 ,20,0 ,49,0 ,18.8,0 ,14.4,0
2003/4/3 9:45,11.5,0 ,27,0 ,19.7,0 ,48,0 ,18.7,0 ,14.5,0
2003/4/3 10:00,12.3,0 ,24,0 ,19.7,0 ,48,0 ,18.6,0 ,14.5,0
2003/4/3 10:15,12.9,0 ,24,0 ,19.5,0 ,47,0 ,18.5,0 ,14.6,0
2003/4/3 10:30,13.4,0 ,23,0 ,19.5,0 ,47,0 ,18.4,0 ,14.7,0
2003/4/3 10:45,13.9,0 ,23,0 ,19.4,0 ,45,0 ,18.3,0 ,14.8,0
2003/4/3 11:00,14.2,0 ,23,0 ,19.4,0 ,46,0 ,18.2,0 ,14.8,0
2003/4/3 11:15,13.8,0 ,26,0 ,19.2,0 ,45,0 ,18.1,0 ,14.9,0
2003/4/3 11:30,13.4,0 ,28,0 ,19.4,0 ,45,0 ,18,0 ,15,0
2003/4/3 11:45,13,0 ,28,0 ,19.2,0 ,44,0 ,18,0 ,15.1,0
2003/4/3 12:00,13,0 ,28,0 ,19.4,0 ,44,0 ,17.9,0 ,15.2,0
2003/4/3 12:15,13.2,0 ,29,0 ,19.1,0 ,43,0 ,17.9,0 ,15.2,0
2003/4/3 12:30,12.8,0 ,29,0 ,19.3,0 ,44,0 ,17.8,0 ,15.3,0
2003/4/3 12:45,12.9,0 ,31,0 ,19.1,0 ,43,0 ,17.8,0 ,15.4,0
2003/4/3 13:00,12.7,0 ,33,0 ,19.3,0 ,43,0 ,17.7,0 ,15.4,0
2003/4/3 13:15,12.8,0 ,34,0 ,19,0 ,42,0 ,17.7,0 ,15.5,0
2003/4/3 13:30,12.9,0 ,34,0 ,19.2,0 ,42,0 ,17.6,0 ,15.5,0
2003/4/3 13:45,12.9,0 ,33,0 ,19.1,0 ,41,0 ,17.6,0 ,15.6,0
2003/4/3 14:00,12.9,0 ,31,0 ,19.2,0 ,41,0 ,17.5,0 ,15.6,0
2003/4/3 14:15,12.8,0 ,31,0 ,19,0 ,41,0 ,17.5,0 ,15.7,0
2003/4/3 14:30,13,0 ,30,0 ,19.2,0 ,41,0 ,17.5,0 ,15.7,0
2003/4/3 14:45,12.8,0 ,30,0 ,19,0 ,40,0 ,17.5,0 ,15.8,0
2003/4/3 15:00,12.5,0 ,30,0 ,19.2,0 ,39,0 ,17.4,0 ,15.8,0
2003/4/3 15:15,12.5,0 ,30,0 ,18.9,0 ,39,0 ,17.4,0 ,15.9,0
2003/4/3 15:30,12.4,0 ,30,0 ,19.1,0 ,39,0 ,17.4,0 ,15.9,0
2003/4/3 15:45,12.3,0 ,31,0 ,18.9,0 ,39,0 ,17.3,0 ,16,0
2003/4/3 16:00,12,0 ,31,0 ,19.1,0 ,39,0 ,17.3,0 ,16,0
2003/4/3 16:15,11.8,0 ,31,0 ,18.8,0 ,39,0 ,17.2,0 ,16.1,0
2003/4/3 16:30,11.7,0 ,31,0 ,19,0 ,39,0 ,17.2,0 ,16.1,0
2003/4/3 16:45,11.4,0 ,33,0 ,18.8,0 ,38,0 ,17.2,0 ,16.2,0
2003/4/3 17:00,11.1,0 ,35,0 ,18.9,0 ,38,0 ,17.1,0 ,16.2,0
2003/4/3 17:15,10.5,0 ,36,0 ,18.7,0 ,37,0 ,17.1,0 ,16.3,0
2003/4/3 17:30,10,0 ,36,0 ,18.8,0 ,37,0 ,17,0 ,16.3,0
2003/4/3 17:45,9.6,0 ,36,0 ,18.6,0 ,37,0 ,17,0 ,16.3,0
2003/4/3 18:00,9.2,0 ,35,0 ,18.7,0 ,37,0 ,16.9,0 ,16.3,0
2003/4/3 18:15,9.1,0 ,35,0 ,18.5,0 ,37,0 ,16.9,0 ,16.4,0
2003/4/3 18:30,8.8,0 ,34,0 ,18.6,0 ,37,0 ,16.8,0 ,16.4,0
2003/4/3 18:45,8.6,0 ,35,0 ,18.4,0 ,38,0 ,16.8,0 ,16.4,0
2003/4/3 19:00,8.2,0 ,36,0 ,18.5,0 ,37,0 ,16.8,0 ,16.4,0
2003/4/3 19:15,7.3,0 ,38,0 ,20.2,0 ,35,0 ,17,0 ,16.5,0
2003/4/3 19:30,6.7,0 ,39,0 ,22.9,0 ,42,0 ,16.9,0 ,16.5,0
2003/4/3 19:45,6.6,0 ,42,0 ,21.7,0 ,42,0 ,16.8,0 ,16.5,0
2003/4/3 20:00,5.9,0 ,45,0 ,22.2,0 ,41,0 ,16.8,0 ,16.6,0
2003/4/3 20:15,5.6,0 ,48,0 ,22.4,0 ,40,0 ,16.7,0 ,16.6,0
2003/4/3 20:30,5.2,0 ,51,0 ,21.8,0 ,38,0 ,16.7,0 ,16.6,0
2003/4/3 20:45,4.6,0 ,53,0 ,21.7,0 ,38,0 ,17.6,0 ,16.6,0
2003/4/3 21:00,4.4,0 ,54,0 ,22.2,0 ,39,0 ,18.2,0 ,12.1,0
2003/4/3 21:15,4.3,0 ,52,0 ,22.6,0 ,40,0 ,17.9,0 ,12.2,0
2003/4/3 21:30,4.4,0 ,49,0 ,22.8,0 ,41,0 ,17.9,0 ,12.4,0
2003/4/3 21:45,4.6,0 ,48,0 ,22.7,0 ,42,0 ,17.7,0 ,12.6,0
2003/4/3 22:00,4.6,0 ,46,0 ,22.8,0 ,42,0 ,17.5,0 ,12.7,0
2003/4/3 22:15,4.6,0 ,52,0 ,22.9,0 ,45,0 ,17.6,0 ,12.8,0
2003/4/3 22:30,4.2,0 ,57,0 ,23.3,0 ,45,0 ,17.6,0 ,12.9,0
2003/4/3 22:45,4.1,0 ,54,0 ,23,0 ,46,0 ,17.8,0 ,12.1,0
2003/4/3 23:00,4.1,0 ,50,0 ,22.8,0 ,47,0 ,18,0 ,12.2,0
2003/4/3 23:15,4.3,0 ,51,0 ,21,0 ,53,0 ,18.3,0 ,12.3,0
2003/4/3 23:30,4.4,0 ,52,0 ,20.8,0 ,53,0 ,18,0 ,12.4,0
2003/4/3 23:45,4.4,0 ,52,0 ,20.3,0 ,54,0 ,17.9,0 ,12.5,0
2003/4/4 0:00,4.3,0 ,52,0 ,20.3,0 ,56,0 ,17.8,0 ,12.7,0
2003/4/4 0:15,4.3,0 ,55,0 ,19.9,0 ,58,0 ,17.7,0 ,12.8,0
2003/4/4 0:30,4.2,0 ,57,0 ,20.1,0 ,55,0 ,17.7,0 ,12.9,0
2003/4/4 0:45,4.1,0 ,58,0 ,19.7,0 ,56,0 ,17.6,0 ,13,0
2003/4/4 1:00,3.8,0 ,58,0 ,20,0 ,54,0 ,17.6,0 ,13.1,0
2003/4/4 1:15,3.7,0 ,60,0 ,19.7,0 ,54,0 ,17.6,0 ,13.2,0
2003/4/4 1:30,3.6,0 ,61,0 ,19.9,0 ,53,0 ,17.6,0 ,13.3,0
2003/4/4 1:45,3.5,0 ,61,0 ,19.5,0 ,53,0 ,17.6,0 ,13.4,0
2003/4/4 2:00,3.3,0 ,61,0 ,19.7,0 ,53,0 ,17.6,0 ,13.5,0
2003/4/4 2:15,3.3,0 ,61,0 ,19.4,0 ,52,0 ,17.6,0 ,13.5,0
2003/4/4 2:30,3.2,0 ,60,0 ,19.5,0 ,52,0 ,17.6,0 ,13.6,0
2003/4/4 2:45,3.2,0 ,62,0 ,19.2,0 ,51,0 ,17.6,0 ,13.7,0
2003/4/4 3:00,3,0 ,63,0 ,19.2,0 ,51,0 ,17.5,0 ,13.8,0
2003/4/4 3:15,2.7,0 ,64,0 ,19,0 ,51,0 ,17.5,0 ,13.9,0
2003/4/4 3:30,2.5,0 ,64,0 ,19.1,0 ,50,0 ,17.5,0 ,13.9,0
2003/4/4 3:45,2.4,0 ,64,0 ,18.9,0 ,50,0 ,17.5,0 ,14,0
2003/4/4 4:00,2.4,0 ,63,0 ,19,0 ,50,0 ,17.5,0 ,14.1,0
2003/4/4 4:15,2.5,0 ,66,0 ,18.7,0 ,49,0 ,17.5,0 ,14.2,0
2003/4/4 4:30,2.5,0 ,68,0 ,18.8,0 ,49,0 ,17.5,0 ,14.2,0
2003/4/4 4:45,2.4,0 ,67,0 ,18.6,0 ,49,0 ,17.5,0 ,14.3,0
2003/4/4 5:00,2.4,0 ,65,0 ,18.6,0 ,49,0 ,17.4,0 ,14.3,0
2003/4/4 5:15,2.3,0 ,65,0 ,18.6,0 ,49,0 ,17.4,0 ,14.4,0
2003/4/4 5:30,2.4,0 ,65,0 ,18.6,0 ,50,0 ,17.4,0 ,14.4,0
2003/4/4 5:45,1.8,0 ,70,0 ,19.8,0 ,49,0 ,17.4,0 ,13.3,0
2003/4/4 6:00,1.1,0 ,75,0 ,21.6,0 ,48,0 ,17.6,0 ,12.3,0
2003/4/4 6:15,1,0 ,73,0 ,22.2,0 ,50,0 ,17.6,0 ,11.9,0
2003/4/4 6:30,1,0 ,71,0 ,22.4,0 ,48,0 ,17.8,0 ,12.2,0
2003/4/4 6:45,1.4,0 ,66,0 ,23.2,0 ,46,0 ,17.7,0 ,12.4,0
2003/4/4 7:00,2.2,0 ,61,0 ,22.3,0 ,44,0 ,17.5,0 ,12.6,0
2003/4/4 7:15,3.2,0 ,57,0 ,22.3,0 ,42,0 ,18.4,0 ,12.7,0
2003/4/4 7:30,4.1,0 ,52,0 ,20.7,0 ,45,0 ,18.6,0 ,12.9,0
2003/4/4 7:45,5.6,0 ,49,0 ,20.3,0 ,45,0 ,18.5,0 ,13,0
2003/4/4 8:00,6.9,0 ,46,0 ,20.2,0 ,46,0 ,18.4,0 ,13.2,0
2003/4/4 8:15,7.3,0 ,44,0 ,20.1,0 ,45,0 ,18.3,0 ,13.3,0
2003/4/4 8:30,8.5,0 ,42,0 ,20,0 ,45,0 ,18.3,0 ,13.4,0
2003/4/4 8:45,9.1,0 ,40,0 ,19.8,0 ,44,0 ,18.2,0 ,13.5,0
2003/4/4 9:00,9.7,0 ,37,0 ,19.7,0 ,44,0 ,18.1,0 ,13.6,0
2003/4/4 9:15,10.3,0 ,36,0 ,19.6,0 ,44,0 ,18,0 ,13.7,0
2003/4/4 9:30,10.8,0 ,34,0 ,19.6,0 ,44,0 ,18,0 ,13.7,0
2003/4/4 9:45,11.4,0 ,32,0 ,19.2,0 ,43,0 ,17.9,0 ,13.8,0
2003/4/4 10:00,11,0 ,30,0 ,19.6,0 ,41,0 ,17.8,0 ,13.9,0
2003/4/4 10:15,11.9,0 ,28,0 ,19.2,0 ,41,0 ,17.7,0 ,14,0
2003/4/4 10:30,12.4,0 ,26,0 ,19.5,0 ,40,0 ,17.6,0 ,14.1,0
2003/4/4 10:45,12.6,0 ,25,0 ,19.2,0 ,40,0 ,17.5,0 ,14.1,0
2003/4/4 11:00,13.1,0 ,23,0 ,19.4,0 ,39,0 ,17.5,0 ,14.2,0
2003/4/4 11:15,13.4,0 ,24,0 ,19.1,0 ,39,0 ,17.4,0 ,14.2,0
2003/4/4 11:30,13.2,0 ,24,0 ,19.3,0 ,39,0 ,17.3,0 ,14.3,0
2003/4/4 11:45,13.1,0 ,24,0 ,19,0 ,39,0 ,17.3,0 ,14.4,0
2003/4/4 12:00,13.2,0 ,23,0 ,19.2,0 ,38,0 ,17.2,0 ,14.4,0
2003/4/4 12:15,13.5,0 ,24,0 ,18.9,0 ,38,0 ,17.2,0 ,14.5,0
2003/4/4 12:30,13.6,0 ,24,0 ,19.1,0 ,38,0 ,17.1,0 ,14.5,0
2003/4/4 12:45,13.5,0 ,25,0 ,18.8,0 ,38,0 ,17.1,0 ,14.6,0
2003/4/4 13:00,13.5,0 ,26,0 ,19,0 ,38,0 ,17.1,0 ,14.6,0
2003/4/4 13:15,13.6,0 ,28,0 ,18.8,0 ,38,0 ,17,0 ,14.7,0
2003/4/4 13:30,13.6,0 ,29,0 ,18.9,0 ,38,0 ,17,0 ,14.7,0
2003/4/4 13:45,13.8,0 ,32,0 ,18.7,0 ,38,0 ,17,0 ,14.7,0
2003/4/4 14:00,13.6,0 ,34,0 ,18.8,0 ,38,0 ,16.9,0 ,14.8,0
2003/4/4 14:15,13.5,0 ,37,0 ,18.7,0 ,38,0 ,16.9,0 ,14.8,0
2003/4/4 14:30,13,0 ,39,0 ,18.8,0 ,38,0 ,16.9,0 ,14.9,0
2003/4/4 14:45,12.5,0 ,40,0 ,18.6,0 ,38,0 ,16.9,0 ,14.9,0
2003/4/4 15:00,12,0 ,40,0 ,18.7,0 ,38,0 ,16.9,0 ,14.9,0
2003/4/4 15:15,11.8,0 ,41,0 ,18.6,0 ,38,0 ,16.8,0 ,15,0
2003/4/4 15:30,11.4,0 ,42,0 ,18.7,0 ,38,0 ,16.8,0 ,15,0
2003/4/4 15:45,11,0 ,44,0 ,18.5,0 ,38,0 ,16.8,0 ,15.1,0
2003/4/4 16:00,10.7,0 ,46,0 ,18.6,0 ,38,0 ,16.7,0 ,15.2,0
2003/4/4 16:15,10.4,0 ,48,0 ,18.4,0 ,38,0 ,16.7,0 ,15.2,0
2003/4/4 16:30,10,0 ,50,0 ,18.5,0 ,38,0 ,16.6,0 ,15.3,0
2003/4/4 16:45,9.7,0 ,52,0 ,18.3,0 ,38,0 ,16.6,0 ,15.3,0
2003/4/4 17:00,9.6,0 ,53,0 ,18.4,0 ,39,0 ,16.5,0 ,15.3,0
2003/4/4 17:15,9.2,0 ,55,0 ,18.3,0 ,39,0 ,16.5,0 ,15.4,0
2003/4/4 17:30,8.9,0 ,56,0 ,18.3,0 ,39,0 ,16.5,0 ,15.4,0
2003/4/4 17:45,8.7,0 ,58,0 ,18.2,0 ,39,0 ,16.4,0 ,15.4,0
2003/4/4 18:00,8.4,0 ,59,0 ,18.2,0 ,39,0 ,16.4,0 ,15.5,0
2003/4/4 18:15,8.2,0 ,62,0 ,18.1,0 ,38,0 ,16.4,0 ,15.5,0
2003/4/4 18:30,7.9,0 ,64,0 ,18.2,0 ,39,0 ,16.3,0 ,15.5,0
2003/4/4 18:45,7.7,0 ,67,0 ,18,0 ,39,0 ,16.3,0 ,15.6,0
2003/4/4 19:00,7.4,0 ,69,0 ,18.6,0 ,40,0 ,16.2,0 ,15.6,0
2003/4/4 19:15,6.9,0 ,70,0 ,20.7,0 ,37,0 ,16.6,0 ,15.6,0
2003/4/4 19:30,6.6,0 ,71,0 ,21.3,0 ,43,0 ,16.5,0 ,15.7,0
2003/4/4 19:45,6.4,0 ,71,0 ,21.3,0 ,42,0 ,16.4,0 ,15.7,0
2003/4/4 20:00,6.3,0 ,71,0 ,22.2,0 ,41,0 ,16.9,0 ,15.7,0
2003/4/4 20:15,6.4,0 ,73,0 ,22.1,0 ,43,0 ,16.7,0 ,15.8,0
2003/4/4 20:30,6,0 ,74,0 ,22.6,0 ,44,0 ,16.6,0 ,11.8,0
2003/4/4 20:45,6,0 ,75,0 ,22.6,0 ,44,0 ,16.5,0 ,12.2,0
2003/4/4 21:00,5.9,0 ,75,0 ,22.7,0 ,45,0 ,16.4,0 ,12.5,0
2003/4/4 21:15,5.8,0 ,76,0 ,22.8,0 ,44,0 ,16.4,0 ,12.6,0
2003/4/4 21:30,5.7,0 ,76,0 ,22.7,0 ,44,0 ,16.3,0 ,12.8,0
2003/4/4 21:45,5.6,0 ,77,0 ,23.1,0 ,43,0 ,16.3,0 ,12.9,0
2003/4/4 22:00,5.7,0 ,77,0 ,23,0 ,43,0 ,16.2,0 ,12.1,0
2003/4/4 22:15,5.6,0 ,77,0 ,23.2,0 ,42,0 ,16.2,0 ,12.3,0
2003/4/4 22:30,5.7,0 ,77,0 ,23.1,0 ,43,0 ,16.2,0 ,12.5,0
2003/4/4 22:45,5.6,0 ,78,0 ,23.2,0 ,43,0 ,16.1,0 ,12.6,0
2003/4/4 23:00,5.5,0 ,79,0 ,23.1,0 ,44,0 ,16.1,0 ,11.8,0
2003/4/4 23:15,5.4,0 ,79,0 ,23.2,0 ,44,0 ,16.1,0 ,11.9,0
2003/4/4 23:30,5.5,0 ,79,0 ,23,0 ,45,0 ,16,0 ,12.1,0
2003/4/4 23:45,5.5,0 ,80,0 ,23.1,0 ,44,0 ,16,0 ,12.2,0
2003/4/5 0:00,5.6,0 ,80,0 ,23.1,0 ,45,0 ,16,0 ,12.3,0
2003/4/5 0:15,5.5,0 ,81,0 ,23,0 ,45,0 ,16,0 ,12.4,0
2003/4/5 0:30,5.6,0 ,81,0 ,23.2,0 ,46,0 ,15.9,0 ,12.6,0
2003/4/5 0:45,5.4,0 ,81,0 ,23.1,0 ,46,0 ,15.9,0 ,12.7,0
2003/4/5 1:00,5.4,0 ,81,0 ,23.2,0 ,46,0 ,15.9,0 ,12.8,0
2003/4/5 1:15,5.5,0 ,81,0 ,23,0 ,47,0 ,15.9,0 ,12.9,0
2003/4/5 1:30,5.5,0 ,81,0 ,23.2,0 ,47,0 ,15.9,0 ,13,0
2003/4/5 1:45,5.5,0 ,83,0 ,23,0 ,47,0 ,15.9,0 ,13.1,0
2003/4/5 2:00,5.4,0 ,84,0 ,23.3,0 ,47,0 ,15.8,0 ,13.2,0
2003/4/5 2:15,5.4,0 ,84,0 ,23,0 ,47,0 ,15.8,0 ,13.3,0
2003/4/5 2:30,5.4,0 ,84,0 ,23.2,0 ,47,0 ,15.8,0 ,13.3,0
2003/4/5 2:45,5.4,0 ,86,0 ,23.1,0 ,47,0 ,15.8,0 ,13.4,0
2003/4/5 3:00,5.3,0 ,88,0 ,23.2,0 ,46,0 ,15.8,0 ,12.6,0
2003/4/5 3:15,5.2,0 ,90,0 ,23.1,0 ,46,0 ,15.9,0 ,12.6,0
2003/4/5 3:30,5.1,0 ,92,0 ,23.2,0 ,46,0 ,15.8,0 ,12.7,0
2003/4/5 3:45,5,0 ,93,0 ,23.1,0 ,46,0 ,15.8,0 ,12.8,0
2003/4/5 4:00,4.9,0 ,94,0 ,23.3,0 ,46,0 ,15.8,0 ,12.4,0
2003/4/5 4:15,4.8,0 ,94,0 ,23.1,0 ,46,0 ,15.8,0 ,12.5,0
2003/4/5 4:30,4.9,0 ,94,0 ,23.3,0 ,46,0 ,15.8,0 ,12.6,0
2003/4/5 4:45,4.9,0 ,95,0 ,23.2,0 ,46,0 ,15.7,0 ,12.7,0
2003/4/5 5:00,4.9,0 ,95,0 ,23.3,0 ,46,0 ,15.7,0 ,12.8,0
2003/4/5 5:15,4.9,0 ,95,0 ,23.2,0 ,46,0 ,15.7,0 ,12.8,0
2003/4/5 5:30,4.8,0 ,95,0 ,23.4,0 ,46,0 ,15.7,0 ,12.9,0
2003/4/5 5:45,4.8,0 ,95,0 ,23.2,0 ,46,0 ,15.6,0 ,13,0
2003/4/5 6:00,4.8,0 ,94,0 ,23.4,0 ,46,0 ,15.6,0 ,13.1,0
2003/4/5 6:15,4.7,0 ,94,0 ,23.2,0 ,46,0 ,15.6,0 ,13.2,0
2003/4/5 6:30,4.7,0 ,94,0 ,23.4,0 ,46,0 ,15.6,0 ,13.3,0
2003/4/5 6:45,4.8,0 ,95,0 ,23.3,0 ,46,0 ,15.6,0 ,13.4,0
2003/4/5 7:00,4.9,0 ,95,0 ,23.4,0 ,46,0 ,15.6,0 ,13.5,0
2003/4/5 7:15,4.9,0 ,94,0 ,23.5,0 ,46,0 ,15.5,0 ,12.5,0
2003/4/5 7:30,4.9,0 ,93,0 ,23.6,0 ,46,0 ,15.6,0 ,11.7,0
2003/4/5 7:45,4.9,0 ,93,0 ,23.4,0 ,46,0 ,15.6,0 ,11.8,0
2003/4/5 8:00,4.9,0 ,93,0 ,23.6,0 ,46,0 ,15.7,0 ,12,0
2003/4/5 8:15,5,0 ,93,0 ,23.5,0 ,47,0 ,15.9,0 ,12.1,0